Time,TemperatureF,DewpointF,PressureIn,WindDirection,WindDirectionDegrees,WindSpeedMPH,WindSpeedGustMPH,Humidity,HourlyPrecipIn,Conditions,Clouds,dailyrainin,SoftwareType,DateUTC
2013-04-05 00:23:00,42.0,-99.9,30.06,SW,228,6.0,11.0,-999,-99.99,,,-99.99,,2013-04-05 04:23:00,
2013-04-05 00:33:00,42.0,-99.9,30.06,SW,228,6.0,11.0,-999,-99.99,,,-99.99,,2013-04-05 04:33:00,
2013-04-05 00:43:00,42.0,-99.9,30.06,SW,228,6.0,11.0,-999,-99.99,,,-99.99,,2013-04-05 04:43:00,
2013-04-05 00:52:00,42.0,-99.9,30.04,SW,226,9.0,14.0,-999,-99.99,,,-99.99,,2013-04-05 04:52:00,
2013-04-05 01:32:00,42.0,-99.9,30.04,SW,226,9.0,14.0,-999,-99.99,,,-99.99,,2013-04-05 05:32:00,
2013-04-05 01:42:00,42.0,-99.9,30.04,SW,226,9.0,14.0,-999,-99.99,,,-99.99,,2013-04-05 05:42:00,
2013-04-05 02:32:00,42.0,-99.9,30.01,WSW,250,8.0,14.0,-999,-99.99,,,-99.99,,2013-04-05 06:32:00,
2013-04-05 02:42:00,42.0,-99.9,30.01,WSW,250,8.0,14.0,-999,-99.99,,,-99.99,,2013-04-05 06:42:00,
2013-04-05 02:52:00,42.0,-99.9,30.01,WSW,250,8.0,14.0,-999,-99.99,,,-99.99,,2013-04-05 06:52:00,
2013-04-05 03:23:00,39.0,-99.9,29.99,West,279,2.0,11.0,-999,-99.99,,,-99.99,,2013-04-05 07:23:00,
2013-04-05 03:32:00,39.0,-99.9,29.99,West,279,2.0,11.0,-999,-99.99,,,-99.99,,2013-04-05 07:32:00,
2013-04-05 03:42:00,39.0,-99.9,29.99,West,279,2.0,11.0,-999,-99.99,,,-99.99,,2013-04-05 07:42:00,
2013-04-05 03:52:00,38.0,-99.9,29.95,WSW,245,-999.0,3.0,-999,-99.99,,,-99.99,,2013-04-05 07:52:00,
2013-04-05 04:23:00,38.0,-99.9,29.95,WSW,245,-999.0,3.0,-999,-99.99,,,-99.99,,2013-04-05 08:23:00,
2013-04-05 04:33:00,38.0,-99.9,29.95,WSW,245,-999.0,3.0,-999,-99.99,,,-99.99,,2013-04-05 08:33:00,
2013-04-05 04:43:00,38.0,-99.9,29.95,WSW,245,-999.0,3.0,-999,-99.99,,,-99.99,,2013-04-05 08:43:00,
2013-04-05 04:52:00,38.0,-99.9,29.92,WSW,245,-999.0,-999.0,-999,-99.99,,,-99.99,,2013-04-05 08:52:00,
2013-04-05 05:22:00,38.0,-99.9,29.92,WSW,245,-999.0,-999.0,-999,-99.99,,,-99.99,,2013-04-05 09:22:00,
2013-04-05 05:33:00,38.0,-99.9,29.92,WSW,245,-999.0,-999.0,-999,-99.99,,,-99.99,,2013-04-05 09:33:00,
2013-04-05 05:43:00,38.0,-99.9,29.92,WSW,245,-999.0,-999.0,-999,-99.99,,,-99.99,,2013-04-05 09:43:00,
2013-04-05 06:23:00,38.0,-99.9,29.91,WSW,245,-999.0,-999.0,-999,-99.99,,,-99.99,,2013-04-05 10:23:00,
2013-04-05 06:33:00,38.0,-99.9,29.91,WSW,245,-999.0,-999.0,-999,-99.99,,,-99.99,,2013-04-05 10:33:00,
2013-04-05 06:43:00,38.0,-99.9,29.91,WSW,245,-999.0,-999.0,-999,-99.99,,,-99.99,,2013-04-05 10:43:00,
2013-04-05 06:52:00,38.0,-99.9,29.89,WSW,245,-999.0,-999.0,-999,-99.99,,,-99.99,,2013-04-05 10:52:00,
2013-04-05 07:23:00,38.0,-99.9,29.89,WSW,245,-999.0,-999.0,-999,-99.99,,,-99.99,,2013-04-05 11:23:00,
2013-04-05 07:33:00,38.0,-99.9,29.89,WSW,245,-999.0,-999.0,-999,-99.99,,,-99.99,,2013-04-05 11:33:00,
2013-04-05 07:42:00,38.0,-99.9,29.89,WSW,245,-999.0,-999.0,-999,-99.99,,,-99.99,,2013-04-05 11:42:00,
2013-04-05 07:53:00,38.0,-99.9,29.86,ENE,64,-999.0,6.0,-999,-99.99,,,-99.99,,2013-04-05 11:53:00,
2013-04-05 08:22:00,38.0,-99.9,29.86,ENE,64,-999.0,6.0,-999,-99.99,,,-99.99,,2013-04-05 12:22:00,
2013-04-05 08:32:00,38.0,-99.9,29.86,ENE,64,-999.0,6.0,-999,-99.99,,,-99.99,,2013-04-05 12:32:00,
2013-04-05 08:42:00,38.0,-99.9,29.86,ENE,64,-999.0,6.0,-999,-99.99,,,-99.99,,2013-04-05 12:42:00,
2013-04-05 08:53:00,39.0,-99.9,29.84,NE,42,-999.0,-999.0,-999,-99.99,,,-99.99,,2013-04-05 12:53:00,
2013-04-05 09:23:00,39.0,-99.9,29.84,NE,42,-999.0,-999.0,-999,-99.99,,,-99.99,,2013-04-05 13:23:00,
2013-04-05 09:32:00,39.0,-99.9,29.84,NE,42,-999.0,-999.0,-999,-99.99,,,-99.99,,2013-04-05 13:32:00,
2013-04-05 09:43:00,39.0,-99.9,29.84,NE,42,-999.0,-999.0,-999,-99.99,,,-99.99,,2013-04-05 13:43:00,
2013-04-05 10:52:00,42.0,-99.9,29.80,North,0,7.0,10.0,-999,-99.99,,,-99.99,,2013-04-05 14:52:00,
2013-04-05 11:24:00,42.0,-99.9,29.80,North,0,7.0,10.0,-999,-99.99,,,-99.99,,2013-04-05 15:24:00,
2013-04-05 11:34:00,42.0,-99.9,29.80,North,0,7.0,10.0,-999,-99.99,,,-99.99,,2013-04-05 15:34:00,
2013-04-05 11:43:00,42.0,-99.9,29.80,North,0,7.0,10.0,-999,-99.99,,,-99.99,,2013-04-05 15:43:00,
2013-04-05 11:53:00,44.0,-99.9,29.77,ESE,104,4.0,9.0,-999,-99.99,,,-99.99,,2013-04-05 15:53:00,
2013-04-05 12:23:00,44.0,-99.9,29.77,ESE,104,4.0,9.0,-999,-99.99,,,-99.99,,2013-04-05 16:23:00,
2013-04-05 12:33:00,44.0,-99.9,29.77,ESE,104,4.0,9.0,-999,-99.99,,,-99.99,,2013-04-05 16:33:00,
2013-04-05 12:43:00,44.0,-99.9,29.77,ESE,104,4.0,9.0,-999,-99.99,,,-99.99,,2013-04-05 16:43:00,
2013-04-05 12:52:00,44.0,-99.9,29.74,SE,129,5.0,11.0,-999,-99.99,,,-99.99,,2013-04-05 16:52:00,
2013-04-05 13:24:00,44.0,-99.9,29.74,SE,129,5.0,11.0,-999,-99.99,,,-99.99,,2013-04-05 17:24:00,
2013-04-05 13:33:00,44.0,-99.9,29.74,SE,129,5.0,11.0,-999,-99.99,,,-99.99,,2013-04-05 17:33:00,
2013-04-05 13:46:00,44.0,-99.9,29.74,SE,129,5.0,11.0,-999,-99.99,,,-99.99,,2013-04-05 17:46:00,
2013-04-05 13:52:00,44.0,-99.9,29.72,SE,129,6.0,11.0,-999,-99.99,,,-99.99,,2013-04-05 17:52:00,
2013-04-05 14:35:00,44.0,-99.9,29.72,SE,129,6.0,11.0,-999,-99.99,,,-99.99,,2013-04-05 18:35:00,
2013-04-05 14:43:00,44.0,-99.9,29.72,SE,129,6.0,11.0,-999,-99.99,,,-99.99,,2013-04-05 18:43:00,
2013-04-05 14:53:00,48.0,-99.9,29.69,SE,126,7.0,8.0,-999,-99.99,,,-99.99,,2013-04-05 18:53:00,
2013-04-05 15:23:00,48.0,-99.9,29.69,SE,126,7.0,8.0,-999,-99.99,,,-99.99,,2013-04-05 19:23:00,
2013-04-05 15:34:00,48.0,-99.9,29.69,SE,126,7.0,8.0,-999,-99.99,,,-99.99,,2013-04-05 19:34:00,
2013-04-05 15:43:00,48.0,-99.9,29.69,SE,126,7.0,8.0,-999,-99.99,,,-99.99,,2013-04-05 19:43:00,
2013-04-05 15:52:00,47.0,-99.9,29.67,SW,222,7.0,11.0,-999,-99.99,,,-99.99,,2013-04-05 19:52:00,
2013-04-05 16:23:00,47.0,-99.9,29.67,SW,222,7.0,11.0,-999,-99.99,,,-99.99,,2013-04-05 20:23:00,
2013-04-05 16:33:00,47.0,-99.9,29.67,SW,222,7.0,11.0,-999,-99.99,,,-99.99,,2013-04-05 20:33:00,
2013-04-05 16:43:00,47.0,-99.9,29.67,SW,222,7.0,11.0,-999,-99.99,,,-99.99,,2013-04-05 20:43:00,
2013-04-05 16:52:00,49.0,-99.9,29.68,South,188,2.0,15.0,-999,-99.99,,,-99.99,,2013-04-05 20:52:00,
2013-04-05 17:35:00,49.0,-99.9,29.68,South,188,2.0,15.0,-999,-99.99,,,-99.99,,2013-04-05 21:35:00,
2013-04-05 17:44:00,49.0,-99.9,29.68,South,188,2.0,15.0,-999,-99.99,,,-99.99,,2013-04-05 21:44:00,
2013-04-05 17:52:00,47.0,-99.9,29.72,SSW,195,10.0,13.0,-999,-99.99,,,-99.99,,2013-04-05 21:52:00,
2013-04-05 18:23:00,47.0,-99.9,29.72,SSW,195,10.0,13.0,-999,-99.99,,,-99.99,,2013-04-05 22:23:00,
2013-04-05 18:34:00,47.0,-99.9,29.72,SSW,195,10.0,13.0,-999,-99.99,,,-99.99,,2013-04-05 22:34:00,
2013-04-05 18:44:00,47.0,-99.9,29.72,SSW,195,10.0,13.0,-999,-99.99,,,-99.99,,2013-04-05 22:44:00,
2013-04-05 18:52:00,47.0,-99.9,29.74,SSW,199,6.0,6.0,-999,-99.99,,,-99.99,,2013-04-05 22:52:00,
2013-04-05 19:23:00,47.0,-99.9,29.74,SSW,199,6.0,6.0,-999,-99.99,,,-99.99,,2013-04-05 23:23:00,
2013-04-05 19:33:00,47.0,-99.9,29.74,SSW,199,6.0,6.0,-999,-99.99,,,-99.99,,2013-04-05 23:33:00,
2013-04-05 19:43:00,47.0,-99.9,29.74,SSW,199,6.0,6.0,-999,-99.99,,,-99.99,,2013-04-05 23:43:00,
2013-04-05 19:52:00,50.0,-99.9,29.77,North,9,-999.0,6.0,-999,-99.99,,,-99.99,,2013-04-05 23:52:00,
2013-04-05 20:33:00,50.0,-99.9,29.77,North,9,-999.0,6.0,-999,-99.99,,,-99.99,,2013-04-06 00:33:00,
2013-04-05 20:43:00,50.0,-99.9,29.77,North,9,-999.0,6.0,-999,-99.99,,,-99.99,,2013-04-06 00:43:00,
2013-04-05 20:52:00,53.0,-99.9,29.80,North,-999,5.0,8.0,-999,-99.99,,,-99.99,,2013-04-06 00:52:00,
2013-04-05 21:33:00,53.0,-99.9,29.80,North,-999,5.0,8.0,-999,-99.99,,,-99.99,,2013-04-06 01:33:00,
2013-04-05 21:44:00,53.0,-99.9,29.80,North,-999,5.0,8.0,-999,-99.99,,,-99.99,,2013-04-06 01:44:00,
2013-04-05 21:52:00,52.0,-99.9,29.85,North,359,8.0,14.0,-999,-99.99,,,-99.99,,2013-04-06 01:52:00,
2013-04-05 22:23:00,52.0,-99.9,29.85,North,359,8.0,14.0,-999,-99.99,,,-99.99,,2013-04-06 02:23:00,
2013-04-05 22:33:00,52.0,-99.9,29.85,North,359,8.0,14.0,-999,-99.99,,,-99.99,,2013-04-06 02:33:00,
2013-04-05 22:43:00,52.0,-99.9,29.85,North,359,8.0,14.0,-999,-99.99,,,-99.99,,2013-04-06 02:43:00,
2013-04-05 22:52:00,50.0,-99.9,29.88,NW,313,12.0,15.0,-999,-99.99,,,-99.99,,2013-04-06 02:52:00,
2013-04-05 23:23:00,50.0,-99.9,29.88,NW,313,12.0,15.0,-999,-99.99,,,-99.99,,2013-04-06 03:23:00,
2013-04-05 23:34:00,50.0,-99.9,29.88,NW,313,12.0,15.0,-999,-99.99,,,-99.99,,2013-04-06 03:34:00,
2013-04-05 23:44:00,50.0,-99.9,29.88,NW,313,12.0,15.0,-999,-99.99,,,-99.99,,2013-04-06 03:44:00,
2013-04-05 23:52:00,47.0,-99.9,29.92,NNE,17,12.0,25.0,-999,-99.99,,,-99.99,,2013-04-06 03:52:00,